<?xml version="1.0" encoding="UTF-8" standalone="no" ?>
<gpx xmlns="http://www.topografix.com/GPX/1/1" xmlns:xsi="http://www.w3.org/2001/XMLSchema-instance" xsi:schemaLocation="http://www.topografix.com/GPX/1/1 http://www.topografix.com/GPX/1/1/gpx.xsd" version="1.1" creator="VisuGPX - https://www.visugpx.com">
  <metadata>
    <name>Les Saisies g2 2015</name>
  </metadata>
  <trk>
    <name><![CDATA[12919570-Les Saisies g1]]></name>
    <trkseg>
      <trkpt lat="45.75948" lon="6.53438">
        <ele>1658</ele>
        <time>2021-04-23T09:52:10Z</time>
      </trkpt>
      <trkpt lat="45.75941" lon="6.53435">
        <ele>1658</ele>
        <time>2021-04-23T09:52:16Z</time>
      </trkpt>
      <trkpt lat="45.75894" lon="6.5353">
        <ele>1656</ele>
        <time>2021-04-23T09:53:21Z</time>
      </trkpt>
      <trkpt lat="45.75909" lon="6.53543">
        <ele>1658</ele>
        <time>2021-04-23T09:53:35Z</time>
      </trkpt>
      <trkpt lat="45.75913" lon="6.53551">
        <ele>1658</ele>
        <time>2021-04-23T09:53:40Z</time>
      </trkpt>
      <trkpt lat="45.75913" lon="6.53565">
        <ele>1658</ele>
        <time>2021-04-23T09:53:48Z</time>
      </trkpt>
      <trkpt lat="45.75911" lon="6.53586">
        <ele>1659</ele>
        <time>2021-04-23T09:54:00Z</time>
      </trkpt>
      <trkpt lat="45.75915" lon="6.53589">
        <ele>1659</ele>
        <time>2021-04-23T09:54:04Z</time>
      </trkpt>
      <trkpt lat="45.75922" lon="6.5359">
        <ele>1660</ele>
        <time>2021-04-23T09:54:09Z</time>
      </trkpt>
      <trkpt lat="45.75927" lon="6.536">
        <ele>1661</ele>
        <time>2021-04-23T09:54:16Z</time>
      </trkpt>
      <trkpt lat="45.75932" lon="6.53616">
        <ele>1663</ele>
        <time>2021-04-23T09:54:26Z</time>
      </trkpt>
      <trkpt lat="45.75933" lon="6.53638">
        <ele>1664</ele>
        <time>2021-04-23T09:54:38Z</time>
      </trkpt>
      <trkpt lat="45.75936" lon="6.53648">
        <ele>1665</ele>
        <time>2021-04-23T09:54:44Z</time>
      </trkpt>
      <trkpt lat="45.7594" lon="6.53702">
        <ele>1670</ele>
        <time>2021-04-23T09:55:15Z</time>
      </trkpt>
      <trkpt lat="45.75945" lon="6.5371">
        <ele>1671</ele>
        <time>2021-04-23T09:55:21Z</time>
      </trkpt>
      <trkpt lat="45.75949" lon="6.53732">
        <ele>1673</ele>
        <time>2021-04-23T09:55:33Z</time>
      </trkpt>
      <trkpt lat="45.75946" lon="6.53764">
        <ele>1676</ele>
        <time>2021-04-23T09:55:51Z</time>
      </trkpt>
      <trkpt lat="45.75935" lon="6.53802">
        <ele>1677</ele>
        <time>2021-04-23T09:56:14Z</time>
      </trkpt>
      <trkpt lat="45.75919" lon="6.53887">
        <ele>1682</ele>
        <time>2021-04-23T09:57:04Z</time>
      </trkpt>
      <trkpt lat="45.75917" lon="6.53917">
        <ele>1684</ele>
        <time>2021-04-23T09:57:20Z</time>
      </trkpt>
      <trkpt lat="45.75917" lon="6.53952">
        <ele>1687</ele>
        <time>2021-04-23T09:57:40Z</time>
      </trkpt>
      <trkpt lat="45.7592" lon="6.53984">
        <ele>1691</ele>
        <time>2021-04-23T09:57:58Z</time>
      </trkpt>
      <trkpt lat="45.7592" lon="6.54027">
        <ele>1693</ele>
        <time>2021-04-23T09:58:22Z</time>
      </trkpt>
      <trkpt lat="45.75927" lon="6.54046">
        <ele>1696</ele>
        <time>2021-04-23T09:58:34Z</time>
      </trkpt>
      <trkpt lat="45.75941" lon="6.54125">
        <ele>1704</ele>
        <time>2021-04-23T09:59:20Z</time>
      </trkpt>
      <trkpt lat="45.75935" lon="6.54181">
        <ele>1705</ele>
        <time>2021-04-23T09:59:51Z</time>
      </trkpt>
      <trkpt lat="45.7594" lon="6.5421">
        <ele>1709</ele>
        <time>2021-04-23T10:00:08Z</time>
      </trkpt>
      <trkpt lat="45.7594" lon="6.54248">
        <ele>1711</ele>
        <time>2021-04-23T10:00:29Z</time>
      </trkpt>
      <trkpt lat="45.75937" lon="6.543">
        <ele>1714</ele>
        <time>2021-04-23T10:00:58Z</time>
      </trkpt>
      <trkpt lat="45.75941" lon="6.54324">
        <ele>1718</ele>
        <time>2021-04-23T10:01:12Z</time>
      </trkpt>
      <trkpt lat="45.7596" lon="6.54465">
        <ele>1732</ele>
        <time>2021-04-23T10:02:32Z</time>
      </trkpt>
      <trkpt lat="45.75964" lon="6.54537">
        <ele>1741</ele>
        <time>2021-04-23T10:03:13Z</time>
      </trkpt>
      <trkpt lat="45.75961" lon="6.54556">
        <ele>1742</ele>
        <time>2021-04-23T10:03:24Z</time>
      </trkpt>
      <trkpt lat="45.75961" lon="6.54574">
        <ele>1744</ele>
        <time>2021-04-23T10:03:34Z</time>
      </trkpt>
      <trkpt lat="45.75957" lon="6.54587">
        <ele>1744</ele>
        <time>2021-04-23T10:03:42Z</time>
      </trkpt>
      <trkpt lat="45.75954" lon="6.54631">
        <ele>1748</ele>
        <time>2021-04-23T10:04:06Z</time>
      </trkpt>
      <trkpt lat="45.75953" lon="6.54686">
        <ele>1753</ele>
        <time>2021-04-23T10:04:37Z</time>
      </trkpt>
      <trkpt lat="45.75955" lon="6.54708">
        <ele>1754</ele>
        <time>2021-04-23T10:04:49Z</time>
      </trkpt>
      <trkpt lat="45.7596" lon="6.54732">
        <ele>1755</ele>
        <time>2021-04-23T10:05:03Z</time>
      </trkpt>
      <trkpt lat="45.76" lon="6.54852">
        <ele>1766</ele>
        <time>2021-04-23T10:06:18Z</time>
      </trkpt>
      <trkpt lat="45.76012" lon="6.54911">
        <ele>1769</ele>
        <time>2021-04-23T10:06:52Z</time>
      </trkpt>
      <trkpt lat="45.76008" lon="6.54935">
        <ele>1770</ele>
        <time>2021-04-23T10:07:06Z</time>
      </trkpt>
      <trkpt lat="45.76006" lon="6.55008">
        <ele>1773</ele>
        <time>2021-04-23T10:07:47Z</time>
      </trkpt>
      <trkpt lat="45.75998" lon="6.55026">
        <ele>1774</ele>
        <time>2021-04-23T10:07:59Z</time>
      </trkpt>
      <trkpt lat="45.75992" lon="6.55036">
        <ele>1774</ele>
        <time>2021-04-23T10:08:06Z</time>
      </trkpt>
      <trkpt lat="45.75996" lon="6.55134">
        <ele>1781</ele>
        <time>2021-04-23T10:09:01Z</time>
      </trkpt>
      <trkpt lat="45.76" lon="6.55166">
        <ele>1783</ele>
        <time>2021-04-23T10:09:19Z</time>
      </trkpt>
      <trkpt lat="45.76007" lon="6.55185">
        <ele>1784</ele>
        <time>2021-04-23T10:09:31Z</time>
      </trkpt>
      <trkpt lat="45.76049" lon="6.55239">
        <ele>1787</ele>
        <time>2021-04-23T10:10:16Z</time>
      </trkpt>
      <trkpt lat="45.76056" lon="6.55254">
        <ele>1787</ele>
        <time>2021-04-23T10:10:26Z</time>
      </trkpt>
      <trkpt lat="45.76056" lon="6.55281">
        <ele>1786</ele>
        <time>2021-04-23T10:10:41Z</time>
      </trkpt>
      <trkpt lat="45.7604" lon="6.5533">
        <ele>1787</ele>
        <time>2021-04-23T10:11:11Z</time>
      </trkpt>
      <trkpt lat="45.76035" lon="6.55355">
        <ele>1787</ele>
        <time>2021-04-23T10:11:26Z</time>
      </trkpt>
      <trkpt lat="45.76035" lon="6.55388">
        <ele>1786</ele>
        <time>2021-04-23T10:11:44Z</time>
      </trkpt>
      <trkpt lat="45.7604" lon="6.55424">
        <ele>1784</ele>
        <time>2021-04-23T10:12:05Z</time>
      </trkpt>
      <trkpt lat="45.76036" lon="6.55443">
        <ele>1784</ele>
        <time>2021-04-23T10:12:16Z</time>
      </trkpt>
      <trkpt lat="45.76002" lon="6.55473">
        <ele>1787</ele>
        <time>2021-04-23T10:12:48Z</time>
      </trkpt>
      <trkpt lat="45.76001" lon="6.55484">
        <ele>1787</ele>
        <time>2021-04-23T10:12:54Z</time>
      </trkpt>
      <trkpt lat="45.76002" lon="6.55523">
        <ele>1785</ele>
        <time>2021-04-23T10:13:16Z</time>
      </trkpt>
      <trkpt lat="45.76001" lon="6.55571">
        <ele>1785</ele>
        <time>2021-04-23T10:13:43Z</time>
      </trkpt>
      <trkpt lat="45.76006" lon="6.55604">
        <ele>1783</ele>
        <time>2021-04-23T10:14:02Z</time>
      </trkpt>
      <trkpt lat="45.76008" lon="6.55692">
        <ele>1780</ele>
        <time>2021-04-23T10:14:51Z</time>
      </trkpt>
      <trkpt lat="45.76004" lon="6.55711">
        <ele>1780</ele>
        <time>2021-04-23T10:15:02Z</time>
      </trkpt>
      <trkpt lat="45.75957" lon="6.55777">
        <ele>1784</ele>
        <time>2021-04-23T10:15:55Z</time>
      </trkpt>
      <trkpt lat="45.75922" lon="6.5585">
        <ele>1785</ele>
        <time>2021-04-23T10:16:44Z</time>
      </trkpt>
      <trkpt lat="45.75907" lon="6.55919">
        <ele>1784</ele>
        <time>2021-04-23T10:17:24Z</time>
      </trkpt>
      <trkpt lat="45.75907" lon="6.55953">
        <ele>1782</ele>
        <time>2021-04-23T10:17:43Z</time>
      </trkpt>
      <trkpt lat="45.75937" lon="6.56054">
        <ele>1773</ele>
        <time>2021-04-23T10:18:45Z</time>
      </trkpt>
      <trkpt lat="45.75946" lon="6.56084">
        <ele>1772</ele>
        <time>2021-04-23T10:19:03Z</time>
      </trkpt>
      <trkpt lat="45.75951" lon="6.56106">
        <ele>1771</ele>
        <time>2021-04-23T10:19:16Z</time>
      </trkpt>
      <trkpt lat="45.75957" lon="6.56109">
        <ele>1770</ele>
        <time>2021-04-23T10:19:21Z</time>
      </trkpt>
      <trkpt lat="45.75963" lon="6.56128">
        <ele>1770</ele>
        <time>2021-04-23T10:19:33Z</time>
      </trkpt>
      <trkpt lat="45.75968" lon="6.56181">
        <ele>1771</ele>
        <time>2021-04-23T10:20:03Z</time>
      </trkpt>
      <trkpt lat="45.7598" lon="6.56215">
        <ele>1773</ele>
        <time>2021-04-23T10:20:24Z</time>
      </trkpt>
      <trkpt lat="45.75989" lon="6.56252">
        <ele>1776</ele>
        <time>2021-04-23T10:20:46Z</time>
      </trkpt>
      <trkpt lat="45.75996" lon="6.5626">
        <ele>1778</ele>
        <time>2021-04-23T10:20:53Z</time>
      </trkpt>
      <trkpt lat="45.76008" lon="6.5629">
        <ele>1780</ele>
        <time>2021-04-23T10:21:12Z</time>
      </trkpt>
      <trkpt lat="45.76023" lon="6.56304">
        <ele>1782</ele>
        <time>2021-04-23T10:21:27Z</time>
      </trkpt>
      <trkpt lat="45.76037" lon="6.56322">
        <ele>1784</ele>
        <time>2021-04-23T10:21:42Z</time>
      </trkpt>
      <trkpt lat="45.76038" lon="6.56336">
        <ele>1786</ele>
        <time>2021-04-23T10:21:49Z</time>
      </trkpt>
      <trkpt lat="45.76055" lon="6.56371">
        <ele>1790</ele>
        <time>2021-04-23T10:22:13Z</time>
      </trkpt>
      <trkpt lat="45.76081" lon="6.56409">
        <ele>1799</ele>
        <time>2021-04-23T10:22:43Z</time>
      </trkpt>
      <trkpt lat="45.76094" lon="6.56421">
        <ele>1801</ele>
        <time>2021-04-23T10:22:55Z</time>
      </trkpt>
      <trkpt lat="45.76122" lon="6.56436">
        <ele>1805</ele>
        <time>2021-04-23T10:23:19Z</time>
      </trkpt>
      <trkpt lat="45.76127" lon="6.56432">
        <ele>1806</ele>
        <time>2021-04-23T10:23:24Z</time>
      </trkpt>
      <trkpt lat="45.76135" lon="6.56441">
        <ele>1807</ele>
        <time>2021-04-23T10:23:32Z</time>
      </trkpt>
      <trkpt lat="45.76165" lon="6.56454">
        <ele>1813</ele>
        <time>2021-04-23T10:23:57Z</time>
      </trkpt>
      <trkpt lat="45.76173" lon="6.56449">
        <ele>1812</ele>
        <time>2021-04-23T10:24:04Z</time>
      </trkpt>
      <trkpt lat="45.76185" lon="6.56453">
        <ele>1809</ele>
        <time>2021-04-23T10:24:14Z</time>
      </trkpt>
      <trkpt lat="45.76212" lon="6.56505">
        <ele>1806</ele>
        <time>2021-04-23T10:24:50Z</time>
      </trkpt>
      <trkpt lat="45.76232" lon="6.56521">
        <ele>1804</ele>
        <time>2021-04-23T10:25:09Z</time>
      </trkpt>
      <trkpt lat="45.76234" lon="6.56539">
        <ele>1804</ele>
        <time>2021-04-23T10:25:19Z</time>
      </trkpt>
      <trkpt lat="45.76241" lon="6.56542">
        <ele>1804</ele>
        <time>2021-04-23T10:25:25Z</time>
      </trkpt>
      <trkpt lat="45.76247" lon="6.56571">
        <ele>1805</ele>
        <time>2021-04-23T10:25:41Z</time>
      </trkpt>
      <trkpt lat="45.7627" lon="6.56636">
        <ele>1802</ele>
        <time>2021-04-23T10:26:22Z</time>
      </trkpt>
      <trkpt lat="45.76293" lon="6.56662">
        <ele>1802</ele>
        <time>2021-04-23T10:26:46Z</time>
      </trkpt>
      <trkpt lat="45.76313" lon="6.56674">
        <ele>1803</ele>
        <time>2021-04-23T10:27:03Z</time>
      </trkpt>
      <trkpt lat="45.76327" lon="6.56713">
        <ele>1804</ele>
        <time>2021-04-23T10:27:27Z</time>
      </trkpt>
      <trkpt lat="45.76343" lon="6.56739">
        <ele>1803</ele>
        <time>2021-04-23T10:27:47Z</time>
      </trkpt>
      <trkpt lat="45.76346" lon="6.56783">
        <ele>1799</ele>
        <time>2021-04-23T10:28:12Z</time>
      </trkpt>
      <trkpt lat="45.76382" lon="6.56861">
        <ele>1787</ele>
        <time>2021-04-23T10:29:04Z</time>
      </trkpt>
      <trkpt lat="45.76396" lon="6.56882">
        <ele>1785</ele>
        <time>2021-04-23T10:29:20Z</time>
      </trkpt>
      <trkpt lat="45.7641" lon="6.56898">
        <ele>1784</ele>
        <time>2021-04-23T10:29:34Z</time>
      </trkpt>
      <trkpt lat="45.76443" lon="6.56924">
        <ele>1780</ele>
        <time>2021-04-23T10:30:04Z</time>
      </trkpt>
      <trkpt lat="45.76457" lon="6.56938">
        <ele>1779</ele>
        <time>2021-04-23T10:30:18Z</time>
      </trkpt>
      <trkpt lat="45.76473" lon="6.56957">
        <ele>1778</ele>
        <time>2021-04-23T10:30:35Z</time>
      </trkpt>
      <trkpt lat="45.76489" lon="6.5697">
        <ele>1778</ele>
        <time>2021-04-23T10:30:50Z</time>
      </trkpt>
      <trkpt lat="45.76492" lon="6.56982">
        <ele>1779</ele>
        <time>2021-04-23T10:30:57Z</time>
      </trkpt>
      <trkpt lat="45.76505" lon="6.56989">
        <ele>1779</ele>
        <time>2021-04-23T10:31:08Z</time>
      </trkpt>
      <trkpt lat="45.76533" lon="6.57022">
        <ele>1778</ele>
        <time>2021-04-23T10:31:37Z</time>
      </trkpt>
      <trkpt lat="45.76562" lon="6.57072">
        <ele>1783</ele>
        <time>2021-04-23T10:32:13Z</time>
      </trkpt>
      <trkpt lat="45.76576" lon="6.57109">
        <ele>1787</ele>
        <time>2021-04-23T10:32:37Z</time>
      </trkpt>
      <trkpt lat="45.76609" lon="6.57164">
        <ele>1794</ele>
        <time>2021-04-23T10:33:17Z</time>
      </trkpt>
      <trkpt lat="45.7663" lon="6.57258">
        <ele>1805</ele>
        <time>2021-04-23T10:34:12Z</time>
      </trkpt>
      <trkpt lat="45.7663" lon="6.57298">
        <ele>1808</ele>
        <time>2021-04-23T10:34:35Z</time>
      </trkpt>
      <trkpt lat="45.76635" lon="6.57326">
        <ele>1811</ele>
        <time>2021-04-23T10:34:51Z</time>
      </trkpt>
      <trkpt lat="45.7663" lon="6.57348">
        <ele>1812</ele>
        <time>2021-04-23T10:35:04Z</time>
      </trkpt>
      <trkpt lat="45.76625" lon="6.57356">
        <ele>1811</ele>
        <time>2021-04-23T10:35:10Z</time>
      </trkpt>
      <trkpt lat="45.76617" lon="6.5744">
        <ele>1816</ele>
        <time>2021-04-23T10:35:57Z</time>
      </trkpt>
      <trkpt lat="45.76615" lon="6.5748">
        <ele>1818</ele>
        <time>2021-04-23T10:36:19Z</time>
      </trkpt>
      <trkpt lat="45.76633" lon="6.57553">
        <ele>1822</ele>
        <time>2021-04-23T10:37:03Z</time>
      </trkpt>
      <trkpt lat="45.7665" lon="6.57584">
        <ele>1826</ele>
        <time>2021-04-23T10:37:25Z</time>
      </trkpt>
      <trkpt lat="45.76673" lon="6.5761">
        <ele>1831</ele>
        <time>2021-04-23T10:37:48Z</time>
      </trkpt>
      <trkpt lat="45.76688" lon="6.57631">
        <ele>1832</ele>
        <time>2021-04-23T10:38:05Z</time>
      </trkpt>
      <trkpt lat="45.76712" lon="6.57659">
        <ele>1835</ele>
        <time>2021-04-23T10:38:30Z</time>
      </trkpt>
      <trkpt lat="45.76761" lon="6.577">
        <ele>1843</ele>
        <time>2021-04-23T10:39:15Z</time>
      </trkpt>
      <trkpt lat="45.76781" lon="6.57715">
        <ele>1847</ele>
        <time>2021-04-23T10:39:33Z</time>
      </trkpt>
      <trkpt lat="45.76795" lon="6.57738">
        <ele>1848</ele>
        <time>2021-04-23T10:39:50Z</time>
      </trkpt>
      <trkpt lat="45.76808" lon="6.57789">
        <ele>1848</ele>
        <time>2021-04-23T10:40:21Z</time>
      </trkpt>
      <trkpt lat="45.76832" lon="6.57827">
        <ele>1853</ele>
        <time>2021-04-23T10:40:49Z</time>
      </trkpt>
      <trkpt lat="45.76841" lon="6.57847">
        <ele>1856</ele>
        <time>2021-04-23T10:41:03Z</time>
      </trkpt>
      <trkpt lat="45.76847" lon="6.57871">
        <ele>1858</ele>
        <time>2021-04-23T10:41:17Z</time>
      </trkpt>
      <trkpt lat="45.76853" lon="6.57897">
        <ele>1861</ele>
        <time>2021-04-23T10:41:32Z</time>
      </trkpt>
      <trkpt lat="45.76856" lon="6.57935">
        <ele>1863</ele>
        <time>2021-04-23T10:41:53Z</time>
      </trkpt>
      <trkpt lat="45.76858" lon="6.58009">
        <ele>1867</ele>
        <time>2021-04-23T10:42:35Z</time>
      </trkpt>
      <trkpt lat="45.76856" lon="6.58086">
        <ele>1870</ele>
        <time>2021-04-23T10:43:18Z</time>
      </trkpt>
      <trkpt lat="45.76859" lon="6.5811">
        <ele>1873</ele>
        <time>2021-04-23T10:43:31Z</time>
      </trkpt>
      <trkpt lat="45.76868" lon="6.58163">
        <ele>1878</ele>
        <time>2021-04-23T10:44:02Z</time>
      </trkpt>
      <trkpt lat="45.76874" lon="6.58252">
        <ele>1878</ele>
        <time>2021-04-23T10:44:52Z</time>
      </trkpt>
      <trkpt lat="45.76882" lon="6.58297">
        <ele>1877</ele>
        <time>2021-04-23T10:45:18Z</time>
      </trkpt>
      <trkpt lat="45.76897" lon="6.5835">
        <ele>1880</ele>
        <time>2021-04-23T10:45:50Z</time>
      </trkpt>
      <trkpt lat="45.76916" lon="6.58399">
        <ele>1890</ele>
        <time>2021-04-23T10:46:21Z</time>
      </trkpt>
      <trkpt lat="45.76938" lon="6.58444">
        <ele>1887</ele>
        <time>2021-04-23T10:46:52Z</time>
      </trkpt>
      <trkpt lat="45.76952" lon="6.58484">
        <ele>1887</ele>
        <time>2021-04-23T10:47:17Z</time>
      </trkpt>
      <trkpt lat="45.7697" lon="6.58528">
        <ele>1889</ele>
        <time>2021-04-23T10:47:45Z</time>
      </trkpt>
      <trkpt lat="45.76987" lon="6.58559">
        <ele>1895</ele>
        <time>2021-04-23T10:48:07Z</time>
      </trkpt>
      <trkpt lat="45.76983" lon="6.58571">
        <ele>1895</ele>
        <time>2021-04-23T10:48:15Z</time>
      </trkpt>
      <trkpt lat="45.76987" lon="6.58574">
        <ele>1896</ele>
        <time>2021-04-23T10:48:18Z</time>
      </trkpt>
      <trkpt lat="45.76993" lon="6.58593">
        <ele>1900</ele>
        <time>2021-04-23T10:48:30Z</time>
      </trkpt>
      <trkpt lat="45.76995" lon="6.58601">
        <ele>1901</ele>
        <time>2021-04-23T10:48:35Z</time>
      </trkpt>
      <trkpt lat="45.76995" lon="6.58614">
        <ele>1902</ele>
        <time>2021-04-23T10:48:42Z</time>
      </trkpt>
      <trkpt lat="45.77008" lon="6.58643">
        <ele>1904</ele>
        <time>2021-04-23T10:49:01Z</time>
      </trkpt>
      <trkpt lat="45.77011" lon="6.58648">
        <ele>1904</ele>
        <time>2021-04-23T10:49:05Z</time>
      </trkpt>
      <trkpt lat="45.77014" lon="6.58659">
        <ele>1905</ele>
        <time>2021-04-23T10:49:11Z</time>
      </trkpt>
      <trkpt lat="45.77013" lon="6.58666">
        <ele>1906</ele>
        <time>2021-04-23T10:49:15Z</time>
      </trkpt>
      <trkpt lat="45.77032" lon="6.5873">
        <ele>1911</ele>
        <time>2021-04-23T10:49:54Z</time>
      </trkpt>
      <trkpt lat="45.77058" lon="6.58794">
        <ele>1919</ele>
        <time>2021-04-23T10:50:36Z</time>
      </trkpt>
      <trkpt lat="45.77068" lon="6.58841">
        <ele>1927</ele>
        <time>2021-04-23T10:51:03Z</time>
      </trkpt>
      <trkpt lat="45.77074" lon="6.58859">
        <ele>1929</ele>
        <time>2021-04-23T10:51:14Z</time>
      </trkpt>
      <trkpt lat="45.77081" lon="6.58867">
        <ele>1931</ele>
        <time>2021-04-23T10:51:21Z</time>
      </trkpt>
      <trkpt lat="45.77094" lon="6.58874">
        <ele>1930</ele>
        <time>2021-04-23T10:51:33Z</time>
      </trkpt>
      <trkpt lat="45.77095" lon="6.58883">
        <ele>1931</ele>
        <time>2021-04-23T10:51:38Z</time>
      </trkpt>
      <trkpt lat="45.77104" lon="6.58901">
        <ele>1931</ele>
        <time>2021-04-23T10:51:50Z</time>
      </trkpt>
      <trkpt lat="45.77116" lon="6.5893">
        <ele>1933</ele>
        <time>2021-04-23T10:52:09Z</time>
      </trkpt>
      <trkpt lat="45.77119" lon="6.58972">
        <ele>1938</ele>
        <time>2021-04-23T10:52:32Z</time>
      </trkpt>
      <trkpt lat="45.7713" lon="6.58984">
        <ele>1941</ele>
        <time>2021-04-23T10:52:43Z</time>
      </trkpt>
      <trkpt lat="45.77129" lon="6.58974">
        <ele>1939</ele>
        <time>2021-04-23T10:52:49Z</time>
      </trkpt>
      <trkpt lat="45.7713" lon="6.58984">
        <ele>1941</ele>
        <time>2021-04-23T10:52:55Z</time>
      </trkpt>
      <trkpt lat="45.77131" lon="6.58986">
        <ele>1941</ele>
        <time>2021-04-23T10:52:56Z</time>
      </trkpt>
      <trkpt lat="45.77136" lon="6.59003">
        <ele>1944</ele>
        <time>2021-04-23T10:53:06Z</time>
      </trkpt>
      <trkpt lat="45.77139" lon="6.5902">
        <ele>1945</ele>
        <time>2021-04-23T10:53:16Z</time>
      </trkpt>
      <trkpt lat="45.77137" lon="6.59025">
        <ele>1945</ele>
        <time>2021-04-23T10:53:19Z</time>
      </trkpt>
      <trkpt lat="45.77138" lon="6.59043">
        <ele>1945</ele>
        <time>2021-04-23T10:53:30Z</time>
      </trkpt>
      <trkpt lat="45.77147" lon="6.59054">
        <ele>1949</ele>
        <time>2021-04-23T10:53:39Z</time>
      </trkpt>
      <trkpt lat="45.77158" lon="6.59072">
        <ele>1954</ele>
        <time>2021-04-23T10:53:52Z</time>
      </trkpt>
      <trkpt lat="45.77166" lon="6.59073">
        <ele>1957</ele>
        <time>2021-04-23T10:53:59Z</time>
      </trkpt>
      <trkpt lat="45.7717" lon="6.59081">
        <ele>1957</ele>
        <time>2021-04-23T10:54:04Z</time>
      </trkpt>
      <trkpt lat="45.77172" lon="6.5909">
        <ele>1957</ele>
        <time>2021-04-23T10:54:10Z</time>
      </trkpt>
      <trkpt lat="45.77208" lon="6.59109">
        <ele>1952</ele>
        <time>2021-04-23T10:54:40Z</time>
      </trkpt>
      <trkpt lat="45.77231" lon="6.59116">
        <ele>1950</ele>
        <time>2021-04-23T10:54:59Z</time>
      </trkpt>
      <trkpt lat="45.77248" lon="6.59124">
        <ele>1948</ele>
        <time>2021-04-23T10:55:13Z</time>
      </trkpt>
      <trkpt lat="45.77277" lon="6.59145">
        <ele>1948</ele>
        <time>2021-04-23T10:55:39Z</time>
      </trkpt>
      <trkpt lat="45.77304" lon="6.59156">
        <ele>1947</ele>
        <time>2021-04-23T10:56:02Z</time>
      </trkpt>
      <trkpt lat="45.77334" lon="6.5916">
        <ele>1945</ele>
        <time>2021-04-23T10:56:26Z</time>
      </trkpt>
      <trkpt lat="45.77337" lon="6.59157">
        <ele>1944</ele>
        <time>2021-04-23T10:56:29Z</time>
      </trkpt>
      <trkpt lat="45.77342" lon="6.59161">
        <ele>1945</ele>
        <time>2021-04-23T10:56:34Z</time>
      </trkpt>
      <trkpt lat="45.77379" lon="6.59204">
        <ele>1944</ele>
        <time>2021-04-23T10:57:12Z</time>
      </trkpt>
      <trkpt lat="45.77393" lon="6.5921">
        <ele>1943</ele>
        <time>2021-04-23T10:57:23Z</time>
      </trkpt>
      <trkpt lat="45.77412" lon="6.59208">
        <ele>1943</ele>
        <time>2021-04-23T10:57:39Z</time>
      </trkpt>
      <trkpt lat="45.77423" lon="6.59203">
        <ele>1943</ele>
        <time>2021-04-23T10:57:48Z</time>
      </trkpt>
      <trkpt lat="45.7745" lon="6.59195">
        <ele>1944</ele>
        <time>2021-04-23T10:58:10Z</time>
      </trkpt>
      <trkpt lat="45.77472" lon="6.59192">
        <ele>1944</ele>
        <time>2021-04-23T10:58:28Z</time>
      </trkpt>
      <trkpt lat="45.77495" lon="6.59195">
        <ele>1945</ele>
        <time>2021-04-23T10:58:46Z</time>
      </trkpt>
      <trkpt lat="45.77519" lon="6.59224">
        <ele>1946</ele>
        <time>2021-04-23T10:59:11Z</time>
      </trkpt>
      <trkpt lat="45.77605" lon="6.59287">
        <ele>1953</ele>
        <time>2021-04-23T11:00:29Z</time>
      </trkpt>
      <trkpt lat="45.77639" lon="6.59288">
        <ele>1955</ele>
        <time>2021-04-23T11:00:56Z</time>
      </trkpt>
      <trkpt lat="45.77654" lon="6.59299">
        <ele>1956</ele>
        <time>2021-04-23T11:01:09Z</time>
      </trkpt>
      <trkpt lat="45.77639" lon="6.59288">
        <ele>1955</ele>
        <time>2021-04-23T11:01:23Z</time>
      </trkpt>
      <trkpt lat="45.77699" lon="6.59281">
        <ele>1959</ele>
        <time>2021-04-23T11:02:11Z</time>
      </trkpt>
      <trkpt lat="45.77726" lon="6.59259">
        <ele>1959</ele>
        <time>2021-04-23T11:02:36Z</time>
      </trkpt>
      <trkpt lat="45.77763" lon="6.59256">
        <ele>1961</ele>
        <time>2021-04-23T11:03:06Z</time>
      </trkpt>
      <trkpt lat="45.77771" lon="6.59249">
        <ele>1961</ele>
        <time>2021-04-23T11:03:13Z</time>
      </trkpt>
      <trkpt lat="45.77808" lon="6.59257">
        <ele>1964</ele>
        <time>2021-04-23T11:03:43Z</time>
      </trkpt>
      <trkpt lat="45.7787" lon="6.59229">
        <ele>1967</ele>
        <time>2021-04-23T11:04:35Z</time>
      </trkpt>
      <trkpt lat="45.779" lon="6.59165">
        <ele>1969</ele>
        <time>2021-04-23T11:05:18Z</time>
      </trkpt>
      <trkpt lat="45.77906" lon="6.59113">
        <ele>1970</ele>
        <time>2021-04-23T11:05:48Z</time>
      </trkpt>
      <trkpt lat="45.77906" lon="6.59046">
        <ele>1970</ele>
        <time>2021-04-23T11:06:25Z</time>
      </trkpt>
      <trkpt lat="45.77903" lon="6.59011">
        <ele>1970</ele>
        <time>2021-04-23T11:06:45Z</time>
      </trkpt>
      <trkpt lat="45.77902" lon="6.58925">
        <ele>1970</ele>
        <time>2021-04-23T11:07:33Z</time>
      </trkpt>
      <trkpt lat="45.77895" lon="6.58788">
        <ele>1965</ele>
        <time>2021-04-23T11:08:49Z</time>
      </trkpt>
      <trkpt lat="45.7789" lon="6.58776">
        <ele>1963</ele>
        <time>2021-04-23T11:08:57Z</time>
      </trkpt>
      <trkpt lat="45.77887" lon="6.58761">
        <ele>1961</ele>
        <time>2021-04-23T11:09:06Z</time>
      </trkpt>
      <trkpt lat="45.77874" lon="6.5873">
        <ele>1955</ele>
        <time>2021-04-23T11:09:26Z</time>
      </trkpt>
      <trkpt lat="45.7787" lon="6.5873">
        <ele>1954</ele>
        <time>2021-04-23T11:09:29Z</time>
      </trkpt>
      <trkpt lat="45.77874" lon="6.5873">
        <ele>1955</ele>
        <time>2021-04-23T11:09:33Z</time>
      </trkpt>
      <trkpt lat="45.77887" lon="6.58761">
        <ele>1961</ele>
        <time>2021-04-23T11:09:53Z</time>
      </trkpt>
      <trkpt lat="45.7789" lon="6.58776">
        <ele>1963</ele>
        <time>2021-04-23T11:10:01Z</time>
      </trkpt>
      <trkpt lat="45.77895" lon="6.58788">
        <ele>1965</ele>
        <time>2021-04-23T11:10:09Z</time>
      </trkpt>
      <trkpt lat="45.77902" lon="6.58925">
        <ele>1970</ele>
        <time>2021-04-23T11:11:26Z</time>
      </trkpt>
      <trkpt lat="45.77903" lon="6.59011">
        <ele>1970</ele>
        <time>2021-04-23T11:12:14Z</time>
      </trkpt>
      <trkpt lat="45.77906" lon="6.59046">
        <ele>1970</ele>
        <time>2021-04-23T11:12:34Z</time>
      </trkpt>
      <trkpt lat="45.77906" lon="6.59113">
        <ele>1970</ele>
        <time>2021-04-23T11:13:11Z</time>
      </trkpt>
      <trkpt lat="45.779" lon="6.59165">
        <ele>1969</ele>
        <time>2021-04-23T11:13:41Z</time>
      </trkpt>
      <trkpt lat="45.7787" lon="6.59229">
        <ele>1967</ele>
        <time>2021-04-23T11:14:24Z</time>
      </trkpt>
      <trkpt lat="45.77808" lon="6.59257">
        <ele>1964</ele>
        <time>2021-04-23T11:15:16Z</time>
      </trkpt>
      <trkpt lat="45.77771" lon="6.59249">
        <ele>1961</ele>
        <time>2021-04-23T11:15:46Z</time>
      </trkpt>
      <trkpt lat="45.77763" lon="6.59256">
        <ele>1961</ele>
        <time>2021-04-23T11:15:53Z</time>
      </trkpt>
      <trkpt lat="45.77726" lon="6.59259">
        <ele>1959</ele>
        <time>2021-04-23T11:16:23Z</time>
      </trkpt>
      <trkpt lat="45.77699" lon="6.59281">
        <ele>1959</ele>
        <time>2021-04-23T11:16:48Z</time>
      </trkpt>
      <trkpt lat="45.77639" lon="6.59288">
        <ele>1955</ele>
        <time>2021-04-23T11:17:36Z</time>
      </trkpt>
      <trkpt lat="45.77605" lon="6.59287">
        <ele>1953</ele>
        <time>2021-04-23T11:18:03Z</time>
      </trkpt>
      <trkpt lat="45.77519" lon="6.59224">
        <ele>1946</ele>
        <time>2021-04-23T11:19:20Z</time>
      </trkpt>
      <trkpt lat="45.77495" lon="6.59195">
        <ele>1945</ele>
        <time>2021-04-23T11:19:46Z</time>
      </trkpt>
      <trkpt lat="45.77472" lon="6.59192">
        <ele>1944</ele>
        <time>2021-04-23T11:20:04Z</time>
      </trkpt>
      <trkpt lat="45.7745" lon="6.59195">
        <ele>1944</ele>
        <time>2021-04-23T11:20:22Z</time>
      </trkpt>
      <trkpt lat="45.77423" lon="6.59203">
        <ele>1943</ele>
        <time>2021-04-23T11:20:44Z</time>
      </trkpt>
      <trkpt lat="45.77412" lon="6.59208">
        <ele>1943</ele>
        <time>2021-04-23T11:20:53Z</time>
      </trkpt>
      <trkpt lat="45.77393" lon="6.5921">
        <ele>1943</ele>
        <time>2021-04-23T11:21:08Z</time>
      </trkpt>
      <trkpt lat="45.77379" lon="6.59204">
        <ele>1944</ele>
        <time>2021-04-23T11:21:20Z</time>
      </trkpt>
      <trkpt lat="45.77342" lon="6.59161">
        <ele>1945</ele>
        <time>2021-04-23T11:21:58Z</time>
      </trkpt>
      <trkpt lat="45.77315" lon="6.59145">
        <ele>1944</ele>
        <time>2021-04-23T11:22:21Z</time>
      </trkpt>
      <trkpt lat="45.77299" lon="6.59133">
        <ele>1944</ele>
        <time>2021-04-23T11:22:36Z</time>
      </trkpt>
      <trkpt lat="45.77266" lon="6.59086">
        <ele>1942</ele>
        <time>2021-04-23T11:23:13Z</time>
      </trkpt>
      <trkpt lat="45.77243" lon="6.59046">
        <ele>1938</ele>
        <time>2021-04-23T11:23:42Z</time>
      </trkpt>
      <trkpt lat="45.77212" lon="6.58983">
        <ele>1932</ele>
        <time>2021-04-23T11:24:25Z</time>
      </trkpt>
      <trkpt lat="45.77175" lon="6.58929">
        <ele>1929</ele>
        <time>2021-04-23T11:25:07Z</time>
      </trkpt>
      <trkpt lat="45.77168" lon="6.58914">
        <ele>1928</ele>
        <time>2021-04-23T11:25:18Z</time>
      </trkpt>
      <trkpt lat="45.77138" lon="6.58895">
        <ele>1926</ele>
        <time>2021-04-23T11:25:44Z</time>
      </trkpt>
      <trkpt lat="45.77112" lon="6.58852">
        <ele>1924</ele>
        <time>2021-04-23T11:26:16Z</time>
      </trkpt>
      <trkpt lat="45.77087" lon="6.58801">
        <ele>1923</ele>
        <time>2021-04-23T11:26:50Z</time>
      </trkpt>
      <trkpt lat="45.77043" lon="6.58669">
        <ele>1901</ele>
        <time>2021-04-23T11:28:12Z</time>
      </trkpt>
      <trkpt lat="45.7702" lon="6.58616">
        <ele>1898</ele>
        <time>2021-04-23T11:28:47Z</time>
      </trkpt>
      <trkpt lat="45.7697" lon="6.58528">
        <ele>1889</ele>
        <time>2021-04-23T11:29:50Z</time>
      </trkpt>
      <trkpt lat="45.76952" lon="6.58484">
        <ele>1887</ele>
        <time>2021-04-23T11:30:19Z</time>
      </trkpt>
      <trkpt lat="45.76938" lon="6.58444">
        <ele>1887</ele>
        <time>2021-04-23T11:30:44Z</time>
      </trkpt>
      <trkpt lat="45.76916" lon="6.58399">
        <ele>1890</ele>
        <time>2021-04-23T11:31:15Z</time>
      </trkpt>
      <trkpt lat="45.76897" lon="6.5835">
        <ele>1880</ele>
        <time>2021-04-23T11:31:46Z</time>
      </trkpt>
      <trkpt lat="45.76882" lon="6.58297">
        <ele>1877</ele>
        <time>2021-04-23T11:32:18Z</time>
      </trkpt>
      <trkpt lat="45.76874" lon="6.58252">
        <ele>1878</ele>
        <time>2021-04-23T11:32:44Z</time>
      </trkpt>
      <trkpt lat="45.76868" lon="6.58163">
        <ele>1878</ele>
        <time>2021-04-23T11:33:34Z</time>
      </trkpt>
      <trkpt lat="45.76859" lon="6.5811">
        <ele>1873</ele>
        <time>2021-04-23T11:34:04Z</time>
      </trkpt>
      <trkpt lat="45.76856" lon="6.58086">
        <ele>1870</ele>
        <time>2021-04-23T11:34:18Z</time>
      </trkpt>
      <trkpt lat="45.76858" lon="6.58009">
        <ele>1867</ele>
        <time>2021-04-23T11:35:01Z</time>
      </trkpt>
      <trkpt lat="45.76856" lon="6.57935">
        <ele>1863</ele>
        <time>2021-04-23T11:35:42Z</time>
      </trkpt>
      <trkpt lat="45.76853" lon="6.57897">
        <ele>1861</ele>
        <time>2021-04-23T11:36:04Z</time>
      </trkpt>
      <trkpt lat="45.76847" lon="6.57871">
        <ele>1858</ele>
        <time>2021-04-23T11:36:19Z</time>
      </trkpt>
      <trkpt lat="45.76841" lon="6.57847">
        <ele>1856</ele>
        <time>2021-04-23T11:36:33Z</time>
      </trkpt>
      <trkpt lat="45.76832" lon="6.57827">
        <ele>1853</ele>
        <time>2021-04-23T11:36:46Z</time>
      </trkpt>
      <trkpt lat="45.76808" lon="6.57789">
        <ele>1848</ele>
        <time>2021-04-23T11:37:15Z</time>
      </trkpt>
      <trkpt lat="45.76795" lon="6.57738">
        <ele>1848</ele>
        <time>2021-04-23T11:37:45Z</time>
      </trkpt>
      <trkpt lat="45.76781" lon="6.57715">
        <ele>1847</ele>
        <time>2021-04-23T11:38:02Z</time>
      </trkpt>
      <trkpt lat="45.76761" lon="6.577">
        <ele>1843</ele>
        <time>2021-04-23T11:38:20Z</time>
      </trkpt>
      <trkpt lat="45.76712" lon="6.57659">
        <ele>1835</ele>
        <time>2021-04-23T11:39:06Z</time>
      </trkpt>
      <trkpt lat="45.76688" lon="6.57631">
        <ele>1832</ele>
        <time>2021-04-23T11:39:31Z</time>
      </trkpt>
      <trkpt lat="45.76673" lon="6.5761">
        <ele>1831</ele>
        <time>2021-04-23T11:39:47Z</time>
      </trkpt>
      <trkpt lat="45.7665" lon="6.57584">
        <ele>1826</ele>
        <time>2021-04-23T11:40:11Z</time>
      </trkpt>
      <trkpt lat="45.76633" lon="6.57553">
        <ele>1822</ele>
        <time>2021-04-23T11:40:33Z</time>
      </trkpt>
      <trkpt lat="45.76615" lon="6.5748">
        <ele>1818</ele>
        <time>2021-04-23T11:41:16Z</time>
      </trkpt>
      <trkpt lat="45.76617" lon="6.5744">
        <ele>1816</ele>
        <time>2021-04-23T11:41:39Z</time>
      </trkpt>
      <trkpt lat="45.76625" lon="6.57356">
        <ele>1811</ele>
        <time>2021-04-23T11:42:26Z</time>
      </trkpt>
      <trkpt lat="45.7663" lon="6.57348">
        <ele>1812</ele>
        <time>2021-04-23T11:42:32Z</time>
      </trkpt>
      <trkpt lat="45.76635" lon="6.57326">
        <ele>1811</ele>
        <time>2021-04-23T11:42:45Z</time>
      </trkpt>
      <trkpt lat="45.7663" lon="6.57298">
        <ele>1808</ele>
        <time>2021-04-23T11:43:01Z</time>
      </trkpt>
      <trkpt lat="45.7663" lon="6.57258">
        <ele>1805</ele>
        <time>2021-04-23T11:43:23Z</time>
      </trkpt>
      <trkpt lat="45.76609" lon="6.57164">
        <ele>1794</ele>
        <time>2021-04-23T11:44:18Z</time>
      </trkpt>
      <trkpt lat="45.76576" lon="6.57109">
        <ele>1787</ele>
        <time>2021-04-23T11:44:59Z</time>
      </trkpt>
      <trkpt lat="45.76562" lon="6.57072">
        <ele>1783</ele>
        <time>2021-04-23T11:45:22Z</time>
      </trkpt>
      <trkpt lat="45.76533" lon="6.57022">
        <ele>1778</ele>
        <time>2021-04-23T11:45:59Z</time>
      </trkpt>
      <trkpt lat="45.76505" lon="6.56989">
        <ele>1779</ele>
        <time>2021-04-23T11:46:28Z</time>
      </trkpt>
      <trkpt lat="45.76492" lon="6.56982">
        <ele>1779</ele>
        <time>2021-04-23T11:46:39Z</time>
      </trkpt>
      <trkpt lat="45.76489" lon="6.5697">
        <ele>1778</ele>
        <time>2021-04-23T11:46:46Z</time>
      </trkpt>
      <trkpt lat="45.76473" lon="6.56957">
        <ele>1778</ele>
        <time>2021-04-23T11:47:01Z</time>
      </trkpt>
      <trkpt lat="45.76457" lon="6.56938">
        <ele>1779</ele>
        <time>2021-04-23T11:47:17Z</time>
      </trkpt>
      <trkpt lat="45.76443" lon="6.56924">
        <ele>1780</ele>
        <time>2021-04-23T11:47:31Z</time>
      </trkpt>
      <trkpt lat="45.7641" lon="6.56898">
        <ele>1784</ele>
        <time>2021-04-23T11:48:01Z</time>
      </trkpt>
      <trkpt lat="45.76396" lon="6.56882">
        <ele>1785</ele>
        <time>2021-04-23T11:48:16Z</time>
      </trkpt>
      <trkpt lat="45.76382" lon="6.56861">
        <ele>1787</ele>
        <time>2021-04-23T11:48:32Z</time>
      </trkpt>
      <trkpt lat="45.76346" lon="6.56783">
        <ele>1799</ele>
        <time>2021-04-23T11:49:24Z</time>
      </trkpt>
      <trkpt lat="45.76343" lon="6.56739">
        <ele>1803</ele>
        <time>2021-04-23T11:49:49Z</time>
      </trkpt>
      <trkpt lat="45.76327" lon="6.56713">
        <ele>1804</ele>
        <time>2021-04-23T11:50:08Z</time>
      </trkpt>
      <trkpt lat="45.76313" lon="6.56674">
        <ele>1803</ele>
        <time>2021-04-23T11:50:33Z</time>
      </trkpt>
      <trkpt lat="45.76293" lon="6.56662">
        <ele>1802</ele>
        <time>2021-04-23T11:50:50Z</time>
      </trkpt>
      <trkpt lat="45.7627" lon="6.56636">
        <ele>1802</ele>
        <time>2021-04-23T11:51:13Z</time>
      </trkpt>
      <trkpt lat="45.76247" lon="6.56571">
        <ele>1805</ele>
        <time>2021-04-23T11:51:54Z</time>
      </trkpt>
      <trkpt lat="45.76241" lon="6.56542">
        <ele>1804</ele>
        <time>2021-04-23T11:52:11Z</time>
      </trkpt>
      <trkpt lat="45.76234" lon="6.56539">
        <ele>1804</ele>
        <time>2021-04-23T11:52:17Z</time>
      </trkpt>
      <trkpt lat="45.76232" lon="6.56521">
        <ele>1804</ele>
        <time>2021-04-23T11:52:27Z</time>
      </trkpt>
      <trkpt lat="45.76212" lon="6.56505">
        <ele>1806</ele>
        <time>2021-04-23T11:52:45Z</time>
      </trkpt>
      <trkpt lat="45.76185" lon="6.56453">
        <ele>1809</ele>
        <time>2021-04-23T11:53:22Z</time>
      </trkpt>
      <trkpt lat="45.76173" lon="6.56449">
        <ele>1812</ele>
        <time>2021-04-23T11:53:31Z</time>
      </trkpt>
      <trkpt lat="45.76165" lon="6.56454">
        <ele>1813</ele>
        <time>2021-04-23T11:53:38Z</time>
      </trkpt>
      <trkpt lat="45.76135" lon="6.56441">
        <ele>1807</ele>
        <time>2021-04-23T11:54:04Z</time>
      </trkpt>
      <trkpt lat="45.76127" lon="6.56432">
        <ele>1806</ele>
        <time>2021-04-23T11:54:12Z</time>
      </trkpt>
      <trkpt lat="45.76122" lon="6.56436">
        <ele>1805</ele>
        <time>2021-04-23T11:54:16Z</time>
      </trkpt>
      <trkpt lat="45.76094" lon="6.56421">
        <ele>1801</ele>
        <time>2021-04-23T11:54:40Z</time>
      </trkpt>
      <trkpt lat="45.76081" lon="6.56409">
        <ele>1799</ele>
        <time>2021-04-23T11:54:53Z</time>
      </trkpt>
      <trkpt lat="45.76055" lon="6.56371">
        <ele>1790</ele>
        <time>2021-04-23T11:55:22Z</time>
      </trkpt>
      <trkpt lat="45.76038" lon="6.56336">
        <ele>1786</ele>
        <time>2021-04-23T11:55:46Z</time>
      </trkpt>
      <trkpt lat="45.76037" lon="6.56322">
        <ele>1784</ele>
        <time>2021-04-23T11:55:54Z</time>
      </trkpt>
      <trkpt lat="45.76023" lon="6.56304">
        <ele>1782</ele>
        <time>2021-04-23T11:56:09Z</time>
      </trkpt>
      <trkpt lat="45.76008" lon="6.5629">
        <ele>1780</ele>
        <time>2021-04-23T11:56:23Z</time>
      </trkpt>
      <trkpt lat="45.75996" lon="6.5626">
        <ele>1778</ele>
        <time>2021-04-23T11:56:43Z</time>
      </trkpt>
      <trkpt lat="45.75989" lon="6.56252">
        <ele>1776</ele>
        <time>2021-04-23T11:56:50Z</time>
      </trkpt>
      <trkpt lat="45.7598" lon="6.56215">
        <ele>1773</ele>
        <time>2021-04-23T11:57:12Z</time>
      </trkpt>
      <trkpt lat="45.75968" lon="6.56181">
        <ele>1771</ele>
        <time>2021-04-23T11:57:33Z</time>
      </trkpt>
      <trkpt lat="45.75963" lon="6.56128">
        <ele>1770</ele>
        <time>2021-04-23T11:58:03Z</time>
      </trkpt>
      <trkpt lat="45.75957" lon="6.56109">
        <ele>1770</ele>
        <time>2021-04-23T11:58:15Z</time>
      </trkpt>
      <trkpt lat="45.75951" lon="6.56106">
        <ele>1771</ele>
        <time>2021-04-23T11:58:20Z</time>
      </trkpt>
      <trkpt lat="45.75946" lon="6.56084">
        <ele>1772</ele>
        <time>2021-04-23T11:58:33Z</time>
      </trkpt>
      <trkpt lat="45.75937" lon="6.56054">
        <ele>1773</ele>
        <time>2021-04-23T11:58:51Z</time>
      </trkpt>
      <trkpt lat="45.75907" lon="6.55953">
        <ele>1782</ele>
        <time>2021-04-23T11:59:52Z</time>
      </trkpt>
      <trkpt lat="45.75907" lon="6.55919">
        <ele>1784</ele>
        <time>2021-04-23T12:00:11Z</time>
      </trkpt>
      <trkpt lat="45.75922" lon="6.5585">
        <ele>1785</ele>
        <time>2021-04-23T12:00:51Z</time>
      </trkpt>
      <trkpt lat="45.75957" lon="6.55777">
        <ele>1784</ele>
        <time>2021-04-23T12:01:41Z</time>
      </trkpt>
      <trkpt lat="45.76004" lon="6.55711">
        <ele>1780</ele>
        <time>2021-04-23T12:02:34Z</time>
      </trkpt>
      <trkpt lat="45.76008" lon="6.55692">
        <ele>1780</ele>
        <time>2021-04-23T12:02:45Z</time>
      </trkpt>
      <trkpt lat="45.76006" lon="6.55604">
        <ele>1783</ele>
        <time>2021-04-23T12:03:34Z</time>
      </trkpt>
      <trkpt lat="45.76001" lon="6.55571">
        <ele>1785</ele>
        <time>2021-04-23T12:03:53Z</time>
      </trkpt>
      <trkpt lat="45.76002" lon="6.55523">
        <ele>1785</ele>
        <time>2021-04-23T12:04:20Z</time>
      </trkpt>
      <trkpt lat="45.76001" lon="6.55484">
        <ele>1787</ele>
        <time>2021-04-23T12:04:41Z</time>
      </trkpt>
      <trkpt lat="45.76002" lon="6.55473">
        <ele>1787</ele>
        <time>2021-04-23T12:04:48Z</time>
      </trkpt>
      <trkpt lat="45.76036" lon="6.55443">
        <ele>1784</ele>
        <time>2021-04-23T12:05:20Z</time>
      </trkpt>
      <trkpt lat="45.7604" lon="6.55424">
        <ele>1784</ele>
        <time>2021-04-23T12:05:31Z</time>
      </trkpt>
      <trkpt lat="45.76035" lon="6.55388">
        <ele>1786</ele>
        <time>2021-04-23T12:05:51Z</time>
      </trkpt>
      <trkpt lat="45.76035" lon="6.55355">
        <ele>1787</ele>
        <time>2021-04-23T12:06:10Z</time>
      </trkpt>
      <trkpt lat="45.7604" lon="6.5533">
        <ele>1787</ele>
        <time>2021-04-23T12:06:24Z</time>
      </trkpt>
      <trkpt lat="45.76056" lon="6.55281">
        <ele>1786</ele>
        <time>2021-04-23T12:06:54Z</time>
      </trkpt>
      <trkpt lat="45.76056" lon="6.55254">
        <ele>1787</ele>
        <time>2021-04-23T12:07:09Z</time>
      </trkpt>
      <trkpt lat="45.76049" lon="6.55239">
        <ele>1787</ele>
        <time>2021-04-23T12:07:20Z</time>
      </trkpt>
      <trkpt lat="45.76007" lon="6.55185">
        <ele>1784</ele>
        <time>2021-04-23T12:08:05Z</time>
      </trkpt>
      <trkpt lat="45.76" lon="6.55166">
        <ele>1783</ele>
        <time>2021-04-23T12:08:17Z</time>
      </trkpt>
      <trkpt lat="45.75996" lon="6.55134">
        <ele>1781</ele>
        <time>2021-04-23T12:08:35Z</time>
      </trkpt>
      <trkpt lat="45.75992" lon="6.55036">
        <ele>1774</ele>
        <time>2021-04-23T12:09:30Z</time>
      </trkpt>
      <trkpt lat="45.75998" lon="6.55026">
        <ele>1774</ele>
        <time>2021-04-23T12:09:37Z</time>
      </trkpt>
      <trkpt lat="45.76006" lon="6.55008">
        <ele>1773</ele>
        <time>2021-04-23T12:09:49Z</time>
      </trkpt>
      <trkpt lat="45.76008" lon="6.54935">
        <ele>1770</ele>
        <time>2021-04-23T12:10:30Z</time>
      </trkpt>
      <trkpt lat="45.76012" lon="6.54911">
        <ele>1769</ele>
        <time>2021-04-23T12:10:44Z</time>
      </trkpt>
      <trkpt lat="45.76" lon="6.54852">
        <ele>1766</ele>
        <time>2021-04-23T12:11:18Z</time>
      </trkpt>
      <trkpt lat="45.7596" lon="6.54732">
        <ele>1755</ele>
        <time>2021-04-23T12:12:32Z</time>
      </trkpt>
      <trkpt lat="45.75955" lon="6.54708">
        <ele>1754</ele>
        <time>2021-04-23T12:12:46Z</time>
      </trkpt>
      <trkpt lat="45.75953" lon="6.54686">
        <ele>1753</ele>
        <time>2021-04-23T12:12:59Z</time>
      </trkpt>
      <trkpt lat="45.75954" lon="6.54631">
        <ele>1748</ele>
        <time>2021-04-23T12:13:29Z</time>
      </trkpt>
      <trkpt lat="45.75957" lon="6.54587">
        <ele>1744</ele>
        <time>2021-04-23T12:13:54Z</time>
      </trkpt>
      <trkpt lat="45.75961" lon="6.54574">
        <ele>1744</ele>
        <time>2021-04-23T12:14:02Z</time>
      </trkpt>
      <trkpt lat="45.75961" lon="6.54556">
        <ele>1742</ele>
        <time>2021-04-23T12:14:12Z</time>
      </trkpt>
      <trkpt lat="45.75964" lon="6.54537">
        <ele>1741</ele>
        <time>2021-04-23T12:14:23Z</time>
      </trkpt>
      <trkpt lat="45.7596" lon="6.54465">
        <ele>1732</ele>
        <time>2021-04-23T12:15:03Z</time>
      </trkpt>
      <trkpt lat="45.75941" lon="6.54324">
        <ele>1718</ele>
        <time>2021-04-23T12:16:23Z</time>
      </trkpt>
      <trkpt lat="45.75937" lon="6.543">
        <ele>1714</ele>
        <time>2021-04-23T12:16:37Z</time>
      </trkpt>
      <trkpt lat="45.7594" lon="6.54248">
        <ele>1711</ele>
        <time>2021-04-23T12:17:06Z</time>
      </trkpt>
      <trkpt lat="45.7594" lon="6.5421">
        <ele>1709</ele>
        <time>2021-04-23T12:17:28Z</time>
      </trkpt>
      <trkpt lat="45.75935" lon="6.54181">
        <ele>1705</ele>
        <time>2021-04-23T12:17:44Z</time>
      </trkpt>
      <trkpt lat="45.75941" lon="6.54125">
        <ele>1704</ele>
        <time>2021-04-23T12:18:16Z</time>
      </trkpt>
      <trkpt lat="45.75927" lon="6.54046">
        <ele>1696</ele>
        <time>2021-04-23T12:19:01Z</time>
      </trkpt>
      <trkpt lat="45.7592" lon="6.54027">
        <ele>1693</ele>
        <time>2021-04-23T12:19:13Z</time>
      </trkpt>
      <trkpt lat="45.7592" lon="6.53984">
        <ele>1691</ele>
        <time>2021-04-23T12:19:37Z</time>
      </trkpt>
      <trkpt lat="45.75917" lon="6.53952">
        <ele>1687</ele>
        <time>2021-04-23T12:19:56Z</time>
      </trkpt>
      <trkpt lat="45.75917" lon="6.53917">
        <ele>1684</ele>
        <time>2021-04-23T12:20:15Z</time>
      </trkpt>
      <trkpt lat="45.75919" lon="6.53887">
        <ele>1682</ele>
        <time>2021-04-23T12:20:32Z</time>
      </trkpt>
      <trkpt lat="45.75935" lon="6.53802">
        <ele>1677</ele>
        <time>2021-04-23T12:21:21Z</time>
      </trkpt>
      <trkpt lat="45.75946" lon="6.53764">
        <ele>1676</ele>
        <time>2021-04-23T12:21:44Z</time>
      </trkpt>
      <trkpt lat="45.75949" lon="6.53732">
        <ele>1673</ele>
        <time>2021-04-23T12:22:02Z</time>
      </trkpt>
      <trkpt lat="45.75945" lon="6.5371">
        <ele>1671</ele>
        <time>2021-04-23T12:22:15Z</time>
      </trkpt>
      <trkpt lat="45.7594" lon="6.53702">
        <ele>1670</ele>
        <time>2021-04-23T12:22:21Z</time>
      </trkpt>
      <trkpt lat="45.75936" lon="6.53648">
        <ele>1665</ele>
        <time>2021-04-23T12:22:51Z</time>
      </trkpt>
      <trkpt lat="45.75933" lon="6.53638">
        <ele>1664</ele>
        <time>2021-04-23T12:22:57Z</time>
      </trkpt>
      <trkpt lat="45.75932" lon="6.53616">
        <ele>1663</ele>
        <time>2021-04-23T12:23:10Z</time>
      </trkpt>
      <trkpt lat="45.75927" lon="6.536">
        <ele>1661</ele>
        <time>2021-04-23T12:23:19Z</time>
      </trkpt>
      <trkpt lat="45.75922" lon="6.5359">
        <ele>1660</ele>
        <time>2021-04-23T12:23:26Z</time>
      </trkpt>
      <trkpt lat="45.75915" lon="6.53589">
        <ele>1659</ele>
        <time>2021-04-23T12:23:32Z</time>
      </trkpt>
      <trkpt lat="45.75911" lon="6.53586">
        <ele>1659</ele>
        <time>2021-04-23T12:23:35Z</time>
      </trkpt>
      <trkpt lat="45.75913" lon="6.53565">
        <ele>1658</ele>
        <time>2021-04-23T12:23:47Z</time>
      </trkpt>
      <trkpt lat="45.75913" lon="6.53551">
        <ele>1658</ele>
        <time>2021-04-23T12:23:55Z</time>
      </trkpt>
      <trkpt lat="45.75909" lon="6.53543">
        <ele>1658</ele>
        <time>2021-04-23T12:24:01Z</time>
      </trkpt>
      <trkpt lat="45.75894" lon="6.5353">
        <ele>1656</ele>
        <time>2021-04-23T12:24:15Z</time>
      </trkpt>
      <trkpt lat="45.75918" lon="6.53482">
        <ele>1658</ele>
        <time>2021-04-23T12:24:48Z</time>
      </trkpt>
    </trkseg>
  </trk>
</gpx>